| time (UTC) | temp F | wind direction | speed MPH | gust MPH | rain 1hr in | rain 24hr in | rain mn in | humidity % | barometer mb |
| 20260506081809 | 63 | 315 | 0.0 | 1.0 | 0.00 | 0.00 | 0.00 | 75 | 1031.8 |
| 20260506080811 | 63 | 360 | 0.0 | 1.0 | 0.00 | 0.00 | 0.00 | 74 | 1032.0 |
| 20260506072809 | 65 | 292 | 0.0 | 1.0 | 0.00 | 0.00 | 0.00 | 72 | 1032.1 |
| 20260506061811 | 66 | 307 | 0.0 | 3.0 | 0.00 | 0.00 | 0.00 | 70 | 1032.4 |
| 20260506060809 | 66 | 22 | 0.0 | 2.0 | 0.00 | 0.00 | 0.00 | 69 | 1032.4 |
| 20260506050711 | 66 | 270 | 0.0 | 0.0 | 0.00 | 0.00 | 0.00 | 64 | 1032.8 |
| 20260506044710 | 66 | 275 | 0.0 | 2.0 | 0.00 | 0.00 | 0.00 | 63 | 1032.9 |
| 20260506043710 | 67 | 360 | 0.0 | 1.0 | 0.00 | 0.00 | 0.00 | 62 | 1032.9 |
| 20260506043610 | 67 | 271 | 0.0 | 2.0 | 0.00 | 0.00 | 0.00 | 63 | 1032.9 |
| 20260506042710 | 67 | 32 | 0.0 | 2.0 | 0.00 | 0.00 | 0.00 | 62 | 1032.8 |
| 20260506041809 | 67 | 360 | 0.0 | 0.0 | 0.00 | 0.00 | 0.00 | 62 | 1032.8 |
| 20260506035815 | 67 | 315 | 0.0 | 2.0 | 0.00 | 0.00 | 0.00 | 59 | 1032.7 |
| 20260506034814 | 67 | 303 | 1.0 | 3.0 | 0.00 | 0.00 | 0.00 | 59 | 1032.7 |
| 20260506033815 | 68 | 360 | 0.0 | 0.0 | 0.00 | 0.00 | 0.00 | 58 | 1032.7 |
| 20260506032913 | 68 | 319 | 0.0 | 4.0 | 0.00 | 0.00 | 0.00 | 58 | 1032.8 |
| 20260506032813 | 68 | 315 | 0.0 | 3.0 | 0.00 | 0.00 | 0.00 | 58 | 1032.7 |
| 20260506031815 | 68 | 360 | 0.0 | 0.0 | 0.00 | 0.00 | 0.00 | 58 | 1032.5 |
| 20260506030815 | 68 | 360 | 1.0 | 4.0 | 0.00 | 0.00 | 0.00 | 58 | 1032.7 |
| 20260506030714 | 68 | 338 | 0.0 | 2.0 | 0.00 | 0.00 | 0.00 | 57 | 1032.6 |
| 20260506025715 | 68 | 341 | 0.0 | 2.0 | 0.00 | 0.00 | 0.00 | 57 | 1032.8 |
| 20260506024716 | 68 | 360 | 0.0 | 1.0 | 0.00 | 0.00 | 0.00 | 57 | 1032.7 |
| 20260506024615 | 68 | 341 | 0.0 | 2.0 | 0.00 | 0.00 | 0.00 | 57 | 1032.8 |
| 20260506023614 | 68 | 315 | 0.0 | 0.0 | 0.00 | 0.00 | 0.00 | 57 | 1032.9 |
| 20260506015517 | 70 | 270 | 0.0 | 0.0 | 0.00 | 0.00 | 0.00 | 51 | 1032.7 |
| 20260506014613 | 71 | 360 | 0.0 | 0.0 | 0.00 | 0.00 | 0.00 | 49 | 1032.5 |
| 20260506013615 | 71 | 300 | 0.0 | 3.0 | 0.00 | 0.00 | 0.00 | 48 | 1032.4 |
| 20260506011614 | 72 | 337 | 0.0 | 5.0 | 0.00 | 0.00 | 0.00 | 45 | 1032.2 |
| 20260506010616 | 73 | 360 | 0.0 | 1.0 | 0.00 | 0.00 | 0.00 | 42 | 1032.1 |
| 20260506010514 | 73 | 330 | 0.0 | 2.0 | 0.00 | 0.00 | 0.00 | 42 | 1032.2 |
| 20260506005513 | 74 | 247 | 0.0 | 0.0 | 0.00 | 0.00 | 0.00 | 41 | 1032.0 |
| 20260506004516 | 74 | 324 | 0.0 | 0.0 | 0.00 | 0.00 | 0.00 | 39 | 1031.9 |
| 20260506003614 | 74 | 14 | 0.0 | 1.0 | 0.00 | 0.00 | 0.00 | 39 | 1031.7 |
| 20260506003515 | 74 | 14 | 0.0 | 2.0 | 0.00 | 0.00 | 0.00 | 39 | 1031.7 |
| 20260506000614 | 75 | 2 | 1.0 | 3.0 | 0.00 | 0.00 | 0.00 | 39 | 1031.4 |
| 20260505235613 | 75 | 337 | 0.0 | 0.0 | 0.00 | 0.00 | 0.00 | 40 | 1031.3 |
| 20260505234614 | 76 | 350 | 1.0 | 4.0 | 0.00 | 0.00 | 0.00 | 40 | 1031.2 |
| 20260505233615 | 76 | 7 | 0.0 | 3.0 | 0.00 | 0.00 | 0.00 | 40 | 1031.2 |
| 20260505233514 | 76 | 22 | 1.0 | 2.0 | 0.00 | 0.00 | 0.00 | 40 | 1031.1 |
| 20260505230516 | 77 | 41 | 1.0 | 4.0 | 0.00 | 0.00 | 0.00 | 38 | 1031.0 |
| 20260505225515 | 77 | 337 | 0.0 | 0.0 | 0.00 | 0.00 | 0.00 | 37 | 1031.0 |
| 20260505224515 | 78 | 225 | 0.0 | 1.0 | 0.00 | 0.00 | 0.00 | 36 | 1030.8 |
| 20260505224415 | 78 | 79 | 0.0 | 3.0 | 0.00 | 0.00 | 0.00 | 35 | 1030.8 |
| 20260505223415 | 78 | 218 | 0.0 | 3.0 | 0.00 | 0.00 | 0.00 | 34 | 1030.8 |
| 20260505222514 | 78 | 278 | 1.0 | 3.0 | 0.00 | 0.00 | 0.00 | 34 | 1030.6 |
| 20260505221614 | 78 | 274 | 0.0 | 3.0 | 0.00 | 0.00 | 0.00 | 34 | 1030.7 |
| 20260505221516 | 78 | 142 | 0.0 | 1.0 | 0.00 | 0.00 | 0.00 | 33 | 1030.7 |
| 20260505221415 | 78 | 201 | 1.0 | 3.0 | 0.00 | 0.00 | 0.00 | 33 | 1030.9 |
| 20260505221314 | 78 | 313 | 1.0 | 8.0 | 0.00 | 0.00 | 0.00 | 33 | 1030.7 |
| 20260505220414 | 79 | 189 | 1.0 | 3.0 | 0.00 | 0.00 | 0.00 | 33 | 1030.7 |
| 20260505215415 | 79 | 5 | 0.0 | 2.0 | 0.00 | 0.00 | 0.00 | 32 | 1030.6 |
| 20260505214513 | 79 | 139 | 0.0 | 2.0 | 0.00 | 0.00 | 0.00 | 32 | 1030.6 |
| 20260505213516 | 79 | 246 | 1.0 | 5.0 | 0.00 | 0.00 | 0.00 | 31 | 1030.7 |
| 20260505212613 | 79 | 289 | 1.0 | 9.0 | 0.00 | 0.00 | 0.00 | 31 | 1030.7 |
| 20260505210617 | 79 | 293 | 0.0 | 3.0 | 0.00 | 0.00 | 0.00 | 30 | 1030.6 |
| 20260505205714 | 79 | 315 | 0.0 | 0.0 | 0.00 | 0.00 | 0.00 | 28 | 1030.5 |
| 20260505204813 | 80 | 274 | 0.0 | 2.0 | 0.00 | 0.00 | 0.00 | 27 | 1030.4 |
| 20260505202817 | 82 | 214 | 0.0 | 2.0 | 0.00 | 0.00 | 0.00 | 25 | 1030.5 |
| 20260505201817 | 82 | 191 | 2.0 | 5.0 | 0.00 | 0.00 | 0.00 | 26 | 1030.5 |
| 20260505200913 | 83 | 62 | 3.0 | 8.0 | 0.00 | 0.00 | 0.00 | 26 | 1030.5 |
| 20260505200814 | 83 | 45 | 0.0 | 0.0 | 0.00 | 0.00 | 0.00 | 27 | 1030.6 |
| 20260505200715 | 83 | 58 | 0.0 | 1.0 | 0.00 | 0.00 | 0.00 | 26 | 1030.5 |
| 20260505195714 | 83 | 190 | 0.0 | 4.0 | 0.00 | 0.00 | 0.00 | 28 | 1030.6 |
| 20260505194813 | 83 | 146 | 0.0 | 2.0 | 0.00 | 0.00 | 0.00 | 27 | 1030.6 |
| 20260505193814 | 83 | 297 | 1.0 | 7.0 | 0.00 | 0.00 | 0.00 | 27 | 1030.7 |
| 20260505193715 | 83 | 312 | 0.0 | 2.0 | 0.00 | 0.00 | 0.00 | 28 | 1030.6 |
| 20260505193616 | 83 | 331 | 1.0 | 4.0 | 0.00 | 0.00 | 0.00 | 27 | 1030.7 |
| 20260505192615 | 82 | 322 | 1.0 | 2.0 | 0.00 | 0.00 | 0.00 | 28 | 1030.6 |
| 20260505190616 | 83 | 234 | 0.0 | 2.0 | 0.00 | 0.00 | 0.00 | 29 | 1031.2 |
| 20260505185715 | 83 | 170 | 0.0 | 4.0 | 0.00 | 0.00 | 0.00 | 30 | 1031.2 |
| 20260505184813 | 83 | 35 | 0.0 | 1.0 | 0.00 | 0.00 | 0.00 | 29 | 1031.4 |
| 20260505183814 | 84 | 360 | 0.0 | 1.0 | 0.00 | 0.00 | 0.00 | 30 | 1031.4 |
| 20260505181814 | 85 | 300 | 1.0 | 3.0 | 0.00 | 0.00 | 0.00 | 33 | 1031.7 |
| 20260505180813 | 84 | 90 | 0.0 | 0.0 | 0.00 | 0.00 | 0.00 | 33 | 1031.8 |
| 20260505175815 | 84 | 228 | 2.0 | 7.0 | 0.00 | 0.00 | 0.00 | 33 | 1032.1 |
| 20260505174815 | 83 | 339 | 0.0 | 2.0 | 0.00 | 0.00 | 0.00 | 35 | 1032.2 |
| 20260505174714 | 83 | 33 | 0.0 | 1.0 | 0.00 | 0.00 | 0.00 | 34 | 1032.2 |
| 20260505173715 | 83 | 345 | 0.0 | 4.0 | 0.00 | 0.00 | 0.00 | 33 | 1032.1 |
| 20260505170814 | 83 | 40 | 0.0 | 2.0 | 0.00 | 0.00 | 0.00 | 36 | 1032.3 |
| 20260505165814 | 82 | 113 | 0.0 | 0.0 | 0.00 | 0.00 | 0.00 | 35 | 1032.3 |
| 20260505164814 | 82 | 254 | 0.0 | 2.0 | 0.00 | 0.00 | 0.00 | 35 | 1032.5 |
| 20260505163814 | 82 | 104 | 0.0 | 2.0 | 0.00 | 0.00 | 0.00 | 35 | 1032.6 |
| 20260505162815 | 81 | 319 | 0.0 | 1.0 | 0.00 | 0.00 | 0.00 | 36 | 1032.6 |
| 20260505161013 | 79 | 268 | 1.0 | 4.0 | 0.00 | 0.00 | 0.00 | 38 | 1032.7 |
| 20260505153031 | 80 | 274 | 1.0 | 3.0 | 0.00 | 0.00 | 0.00 | 35 | 1033.0 |
| 20260505152114 | 80 | 244 | 2.0 | 4.0 | 0.00 | 0.00 | 0.00 | 36 | 1033.1 |
| 20260505151114 | 80 | 188 | 0.0 | 2.0 | 0.00 | 0.00 | 0.00 | 36 | 1033.0 |
| 20260505151015 | 80 | 235 | 0.0 | 2.0 | 0.00 | 0.00 | 0.00 | 36 | 1033.0 |
| 20260505140130 | 76 | 180 | 0.0 | 1.0 | 0.00 | 0.00 | 0.00 | 42 | 1033.5 |
| 20260505130215 | 66 | 45 | 0.0 | 0.0 | 0.00 | 0.00 | 0.00 | 56 | 1034.0 |
| 20260505124314 | 64 | 270 | 0.0 | 0.0 | 0.00 | 0.00 | 0.00 | 61 | 1033.9 |
| 20260505123413 | 63 | 45 | 0.0 | 3.0 | 0.00 | 0.00 | 0.00 | 63 | 1033.9 |
| 20260505121414 | 61 | 135 | 0.0 | 0.0 | 0.00 | 0.00 | 0.00 | 68 | 1033.7 |
| 20260505120415 | 60 | 90 | 0.0 | 0.0 | 0.00 | 0.00 | 0.00 | 73 | 1033.7 |
| 20260505115416 | 59 | 90 | 0.0 | 0.0 | 0.00 | 0.00 | 0.00 | 75 | 1033.7 |
| 20260505114416 | 58 | 225 | 0.0 | 0.0 | 0.00 | 0.00 | 0.00 | 77 | 1033.7 |
| 20260505113416 | 57 | 270 | 0.0 | 0.0 | 0.00 | 0.00 | 0.00 | 79 | 1033.7 |
| 20260505112414 | 56 | 360 | 0.0 | 0.0 | 0.00 | 0.00 | 0.00 | 81 | 1033.5 |
| 20260505110513 | 56 | 360 | 0.0 | 0.0 | 0.00 | 0.00 | 0.00 | 80 | 1033.4 |
| 20260505101614 | 55 | 45 | 0.0 | 1.0 | 0.00 | 0.00 | 0.00 | 80 | 1033.1 |
| 20260505100614 | 55 | 45 | 0.0 | 0.0 | 0.00 | 0.00 | 0.00 | 81 | 1033.0 |
| 20260505095713 | 55 | 45 | 0.0 | 0.0 | 0.00 | 0.00 | 0.00 | 79 | 1032.8 |
| 20260505094715 | 55 | 45 | 0.0 | 0.0 | 0.00 | 0.00 | 0.00 | 79 | 1032.8 |
| 20260505093715 | 55 | 45 | 0.0 | 0.0 | 0.00 | 0.00 | 0.00 | 79 | 1032.7 |
| 20260505091615 | 55 | 45 | 0.0 | 0.0 | 0.00 | 0.00 | 0.00 | 78 | 1032.8 |
| 20260505091516 | 55 | 45 | 0.0 | 0.0 | 0.00 | 0.00 | 0.00 | 78 | 1032.8 |
| 20260505090514 | 55 | 135 | 0.0 | 0.0 | 0.00 | 0.00 | 0.00 | 78 | 1032.6 |
| 20260505085613 | 55 | 135 | 0.0 | 0.0 | 0.00 | 0.00 | 0.00 | 78 | 1032.6 |
| 20260505084613 | 56 | 135 | 0.0 | 0.0 | 0.00 | 0.00 | 0.00 | 77 | 1032.7 |
| 20260505083614 | 56 | 135 | 0.0 | 0.0 | 0.00 | 0.00 | 0.00 | 76 | 1032.8 |
| 20260505082616 | 56 | 135 | 0.0 | 0.0 | 0.00 | 0.00 | 0.00 | 76 | 1032.8 |